#timestamp,LO_Frequency,Hit,StdDev 
1550811615.8,286047000.7,N
1550811635.6,286047000.8,N
1550811655.5,286047001.2,N
1550811675.3,286046996.5,N
1550811695.1,286046996.6,N
1550811715.9,286046996.9,N
1550811735.7,286046999.5,N
1550811755.6,286046998.0,N
1550811775.4,286046995.4,N
1550811795.2,286046998.0,N
1550811815.1,286046997.1,N
1550811816.0,286046997.1,N
1550811835.8,286046996.8,N
1550811855.6,286046997.8,N
1550811875.5,286047011.9,Y
1550811895.3,286047000.4,P
1550811915.2,286047000.9,N
1550811935.9,286046999.0,N
1550811955.7,286046999.4,N
1550811975.6,286046997.5,N
1550811995.4,286046997.1,N
1550812015.3,286046997.8,N
1550812035.1,286046996.8,N
1550812036.0,286046996.8,N
1550812055.8,286046995.7,Y
1550812075.7,286046997.3,P
1550812095.5,286046998.4,N
1550812115.3,286046999.0,N
1550812135.2,286046999.4,N
1550812155.0,286047000.0,N
1550812155.9,286047000.0,N
1550812175.8,286047001.0,N
1550812195.6,286046999.9,N
1550812215.4,286047002.3,N
1550812235.3,286047000.2,N
1550812255.1,286047001.1,N
1550812275.9,286047001.0,N
1550812295.7,286047000.3,N
1550812315.5,286047002.6,N
1550812335.4,286047002.1,N
1550812355.2,286047001.9,N
1550812375.0,286047002.1,N
1550812375.9,286047002.1,N
1550812395.8,286047000.2,N
1550812415.6,286046998.6,N
1550812435.5,286046999.7,N
1550812455.3,286047002.5,N
1550812475.1,286047001.8,N
1550812495.9,286047002.2,N
1550812515.7,286046999.7,N
1550812535.6,286047002.7,N
1550812555.4,286047002.4,N
1550812575.2,286047002.6,N
1550812595.1,286047001.6,N
1550812596.0,286047001.6,N
1550812615.8,286047001.8,N
1550812635.6,286047001.3,N
1550812655.5,286047000.3,N
1550812675.3,286046999.9,N
1550812695.2,286047000.2,N
1550812715.9,286047000.6,N
1550812735.7,286047001.0,N
1550812755.6,286047001.4,N
1550812775.4,286047002.3,N
1550812795.2,286047001.9,N
1550812815.1,286047002.0,N
1550812816.0,286047002.0,N
1550812835.8,286046999.9,N
1550812855.7,286047001.2,N
1550812875.5,286046998.5,N
1550812895.3,286046998.4,N
1550812915.2,286046999.4,N
1550812935.0,286046999.0,N
1550812935.9,286046999.0,N
1550812955.8,286047001.2,N
1550812975.6,286046998.3,N
1550812995.4,286047000.3,N
1550813015.3,286046999.1,N
1550813035.1,286046996.9,N
1550813055.8,286046996.7,N
1550813075.7,286046999.2,N
1550813095.5,286047001.2,N
1550813115.4,286046999.5,N
1550813135.2,286046999.5,N
1550813155.0,286046999.4,N
1550813155.9,286046999.4,N
1550813175.8,286046996.5,N
1550813195.6,286046998.8,N
1550813215.5,286047001.0,N
1550813235.3,286047000.4,N
1550813255.1,286047002.5,N
1550813275.9,286047001.9,N
1550813295.7,286047002.2,N
1550813315.5,286047004.2,N
1550813335.4,286047003.6,N
1550813355.2,286047003.4,N
1550813375.1,286047005.8,N
1550813376.0,286047005.8,N
1550813395.8,286047003.0,N
1550813415.6,286047006.4,N
1550813435.5,286047005.1,N
1550813455.3,286047005.9,N
1550813475.2,286047004.4,N
1550813495.9,286047001.3,N
1550813515.7,286047003.6,N
1550813535.6,286047004.3,N
1550813555.4,286047003.9,N
1550813575.2,286047001.4,N
1550813595.1,286047004.0,N
1550813596.0,286047004.0,N
1550813615.8,286047003.0,N
1550813635.7,286047005.5,N
1550813655.5,286047006.8,N
1550813675.3,286047006.8,N
1550813695.2,286047006.7,N
1550813715.0,286047006.4,N
1550813715.9,286047006.4,N
1550813735.8,286047007.5,Y
1550813755.6,286046999.7,P
1550813775.4,286046999.8,N
1550813795.3,286047000.2,N
1550813815.1,286047001.8,N
1550813835.8,286046999.9,N
1550813855.7,286046998.4,N
1550813875.5,286047002.4,N
1550813895.4,286046998.1,N
1550813915.2,286047001.4,N
1550813935.0,286047002.3,N
1550813935.9,286047002.3,N
1550813955.8,286047001.9,N
1550813975.6,286046999.8,N
1550813995.5,286047000.8,N
1550814015.3,286047000.8,N
1550814035.1,286046998.2,N
1550814055.9,286046999.0,N
1550814075.7,286047000.0,N
1550814095.5,286046998.2,N
1550814115.4,286047000.4,N
1550814135.2,286046998.2,N
1550814155.1,286046998.1,N
1550814156.0,286046998.1,N
1550814175.8,286047001.1,N
1550814195.6,286046998.2,N
1550814215.5,286047000.4,N
1550814235.3,286047000.7,N
1550814255.1,286047000.3,N
1550814275.9,286046998.3,N
1550814295.7,286046998.6,N
1550814315.6,286046999.3,N
1550814335.4,286046996.5,N
1550814355.2,286046999.3,N
1550814375.1,286046997.0,N
1550814376.0,286046997.0,N
1550814395.8,286046996.6,N
1550814415.6,286046996.8,N
1550814435.5,286046995.4,N
1550814455.3,286046995.2,N
1550814475.2,286046996.2,N
1550814495.9,286046996.2,N
1550814515.7,286046997.5,N
1550814535.6,286046997.9,N
1550814555.4,286046996.2,N
1550814575.3,286046998.0,N
1550814595.1,286046994.9,Y
1550814596.0,286046994.9,P
1550814615.8,286046996.7,N
1550814635.7,286046998.2,N
1550814655.5,286047001.1,N
1550814675.4,286046999.2,N
1550814695.2,286046999.1,N
1550814715.0,286046996.6,N
1550814715.9,286046996.6,N
1550814735.8,286046998.7,N
1550814755.6,286047011.9,Y
1550814775.4,286047002.2,P
1550814795.3,286047002.4,N
1550814815.1,286047002.0,N
1550814835.9,286047003.2,N
1550814855.7,286047003.7,N
1550814875.5,286047003.5,N
1550814895.4,286047003.6,N
1550814915.2,286047003.9,N
1550814935.0,286047003.5,N
1550814935.9,286047003.5,N
1550814955.8,286047003.5,N
1550814975.6,286047003.7,N
1550814995.5,286047004.3,N
1550815015.3,286047001.4,N
1550815035.1,286047002.6,N
1550815055.9,286046999.8,N
1550815075.7,286047000.0,N
1550815095.6,286047002.0,N
1550815115.4,286047002.0,N
1550815135.2,286047000.0,N
1550815155.1,286047000.2,N
1550815156.0,286047000.2,N
1550815175.8,286047000.7,N
1550815195.7,286046999.5,N
